Terminal Aerodrome Forecast
Issued by NWS

Home | Current Version | Previous Version | Text Only | Print | Product List | Glossary On
Versions: 1 2 3 4 5 6 7 8 9 10 11 12 13 14 15 16 17 18 19 20 21 22 23 24 25 26 27 28 29 30 31 32
000
FTUS41 KBUF 021100
TAFJHW
TAF
KJHW 021134Z 0212/0312 22005KT 5SM BR OVC008
      TEMPO 0212/0213 BKN015
     FM021300 25010KT P6SM BKN025
     FM021600 26012KT P6SM BKN035
     FM021700 27013KT P6SM VCTS BKN040CB
     FM022200 26010KT P6SM VCSH BKN110
     FM030200 25007KT P6SM SCT110
     FM030800 24006KT P6SM BKN070
     FM030900 24005KT P6SM BKN012
      AMD LTD TO CLD VIS AND WIND=

USA.gov is the U.S. government's official web portal to all federal, state and local government web resources and services.